TimeEST,TemperatureF,Dew PointF,Humidity,Sea Level PressureIn,VisibilityMPH,Wind Direction,Wind SpeedMPH,Gust SpeedMPH,PrecipitationIn,Events,Conditions,WindDirDegrees,DateUTC
12:53 AM,42.1,28.0,58,30.18,10.0,SW,3.5,-,N/A,,Mostly Cloudy,230,2013-01-06 05:53:00
1:53 AM,39.9,32.0,73,30.20,10.0,SW,6.9,-,0.00,Rain,Light Rain,220,2013-01-06 06:53:00
2:53 AM,39.0,34.0,82,30.20,9.0,SSW,4.6,-,0.03,Rain,Light Rain,210,2013-01-06 07:53:00
3:53 AM,39.0,35.1,86,30.17,10.0,SSW,3.5,-,0.01,,Mostly Cloudy,210,2013-01-06 08:53:00
4:53 AM,39.0,34.0,82,30.17,10.0,WSW,3.5,-,N/A,,Overcast,250,2013-01-06 09:53:00
5:53 AM,36.0,34.0,93,30.15,9.0,Calm,Calm,-,N/A,,Scattered Clouds,0,2013-01-06 10:53:00
6:53 AM,37.0,33.1,86,30.17,10.0,SSW,3.5,-,N/A,,Scattered Clouds,210,2013-01-06 11:53:00
7:53 AM,37.0,34.0,89,30.17,9.0,Calm,Calm,-,N/A,,Partly Cloudy,0,2013-01-06 12:53:00
8:53 AM,39.9,36.0,86,30.17,10.0,SSW,3.5,-,N/A,,Overcast,210,2013-01-06 13:53:00
9:53 AM,42.1,36.0,79,30.18,10.0,SSW,4.6,-,N/A,,Overcast,210,2013-01-06 14:53:00
11:53 AM,48.9,35.1,59,30.14,10.0,WSW,4.6,-,N/A,,Overcast,240,2013-01-06 16:53:00
1:53 PM,54.0,35.1,49,30.05,10.0,Variable,3.5,-,N/A,,Overcast,0,2013-01-06 18:53:00
2:53 PM,52.0,34.0,50,30.04,10.0,WSW,8.1,-,N/A,,Mostly Cloudy,240,2013-01-06 19:53:00
3:53 PM,52.0,34.0,50,30.04,10.0,SW,5.8,-,N/A,,Overcast,230,2013-01-06 20:53:00
4:53 PM,50.0,35.1,57,30.05,10.0,Calm,Calm,-,N/A,,Overcast,0,2013-01-06 21:53:00
5:53 PM,48.9,32.0,52,30.07,10.0,NNW,4.6,-,N/A,,Overcast,330,2013-01-06 22:53:00
6:53 PM,48.0,30.9,52,30.10,10.0,NW,9.2,-,N/A,,Overcast,320,2013-01-06 23:53:00
7:53 PM,48.0,28.9,48,30.13,10.0,NW,9.2,-,N/A,,Overcast,310,2013-01-07 00:53:00
8:53 PM,46.9,28.9,50,30.13,10.0,NW,5.8,-,N/A,,Overcast,310,2013-01-07 01:53:00
9:53 PM,43.0,28.9,58,30.15,10.0,WSW,3.5,-,N/A,,Overcast,250,2013-01-07 02:53:00
10:53 PM,37.9,27.0,65,30.16,10.0,WSW,5.8,-,N/A,,Clear,250,2013-01-07 03:53:00
11:53 PM,39.9,28.9,65,30.17,10.0,WSW,4.6,-,N/A,,Overcast,250,2013-01-07 04:53:00